Mount Ida, AR

8:56 PM CDT on April 28, 2017 (GMT -0500)
Mount Ida

Weather History for KMWT - July, 2012

Change the Weather History Date:

Friday, July 13, 2012

  Actual Average (KHOT) Record (KHOT)
Temperature  
Mean Temperature 78 °F -  
Max Temperature 90 °F 94 °F 110 °F (1954)
Min Temperature 66 °F 70 °F 56 °F (1990)
Cooling Degree Days 13    
Growing Degree Days 28 (Base 50)    
Moisture  
Dew Point 69 °F    
Average Humidity 86    
Maximum Humidity 100    
Minimum Humidity 48    
Precipitation  
Precipitation 0.00 in - - ()
Sea Level Pressure  
Sea Level Pressure 29.98 in    
Wind  
Wind Speed 1 mph (SE)    
Max Wind Speed 9 mph    
Max Gust Speed 17 mph    
Visibility 5 miles    
Events Fog    
Averages and records for this station are not official NWS values.
T = Trace of Precipitation, MM = Missing Value Source: NWS Daily Summary

Daily Weather History Graph

Daily Weather History Graph

Search for Another Location

Airport or City:

Trip Planner

Search our weather history database for the weather conditions in past years. The results will help you decide how hot, cold, wet, or windy it might be!

Date:

Astronomy

Jul. 13, 2012 Rise Set
Actual Time 6:11 AM CDT 8:28 PM CDT
Civil Twilight 5:43 AM CDT 8:56 PM CDT
Nautical Twilight 5:07 AM CDT 9:32 PM CDT
Astronomical Twilight 4:29 AM CDT 10:10 PM CDT
Moon 1:46 AM CDT (7/13) 4:00 PM CDT (7/13)
Length of Visible Light 15h 13m
Length of Day
14h 16m
Waning Crescent, 26% of the Moon is Illuminated
Jul 13
Waning Crescent
Jul 18
New
Jul 26
First Quarter
Aug 1
Full
Aug 9
Last Quarter

Hourly Weather History & Observations

Time (CDT) Temp. Heat Index Dew Point Humidity Pressure Visibility Wind Dir Wind Speed Gust Speed Precip Events Conditions
12:53 AM 70.0 °F - 70.0 °F 100% 29.95 in 0.8 mi Calm Calm - N/A   Mist
1:14 AM 69.8 °F - 69.8 °F 100% 29.98 in 2.0 mi Calm Calm - N/A   Mostly Cloudy
1:22 AM 69.8 °F - 69.8 °F 100% 29.98 in 4.0 mi Calm Calm - N/A   Scattered Clouds
1:53 AM 70.0 °F - 69.1 °F 97% 29.95 in 3.0 mi Calm Calm - N/A   Clear
2:15 AM 69.8 °F - 69.8 °F 100% 29.98 in 2.0 mi Calm Calm - N/A   Clear
2:49 AM 69.8 °F - 69.8 °F 100% 29.98 in 1.5 mi Calm Calm - N/A   Partly Cloudy
2:53 AM 69.1 °F - 69.1 °F 100% 29.95 in 1.5 mi Calm Calm - N/A   Partly Cloudy
3:12 AM 69.8 °F - 68.0 °F 94% 29.98 in 2.5 mi Calm Calm - N/A   Partly Cloudy
3:19 AM 69.8 °F - 68.0 °F 94% 29.99 in 3.0 mi Calm Calm - N/A   Partly Cloudy
3:34 AM 69.8 °F - 68.0 °F 94% 29.98 in 2.5 mi Calm Calm - N/A   Clear
3:53 AM 69.1 °F - 68.0 °F 96% 29.94 in 3.0 mi Calm Calm - N/A   Clear
4:12 AM 69.8 °F - 68.0 °F 94% 29.98 in 1.5 mi Calm Calm - N/A   Clear
4:23 AM 69.8 °F - 68.0 °F 94% 29.98 in 3.0 mi Calm Calm - N/A   Clear
4:53 AM 68.0 °F - 68.0 °F 100% 29.96 in 3.0 mi Calm Calm - N/A   Scattered Clouds
5:09 AM 68.0 °F - 68.0 °F 100% 30.00 in 2.0 mi Calm Calm - N/A   Mostly Cloudy
5:16 AM 68.0 °F - 68.0 °F 100% 30.00 in 1.2 mi Calm Calm - N/A   Mostly Cloudy
5:27 AM 68.0 °F - 68.0 °F 100% 30.00 in 0.8 mi Calm Calm - N/A   Mist
5:43 AM 68.0 °F - 68.0 °F 100% 30.00 in 0.2 mi Calm Calm - N/A Fog Fog
5:53 AM 68.0 °F - 68.0 °F 100% 29.96 in 0.5 mi Calm Calm - N/A Fog Fog
6:23 AM 68.0 °F - 66.2 °F 94% 30.00 in 0.2 mi Calm Calm - N/A Fog Fog
6:42 AM 66.2 °F - 66.2 °F 100% 30.01 in 0.5 mi Calm Calm - N/A Fog Fog
6:53 AM 68.0 °F - 68.0 °F 100% 29.97 in 0.2 mi Calm Calm - N/A Fog Fog
7:12 AM 69.8 °F - 68.0 °F 94% 30.01 in 1.0 mi Calm Calm - N/A   Overcast
7:20 AM 69.8 °F - 68.0 °F 94% 30.02 in 3.0 mi Calm Calm - N/A   Overcast
7:53 AM 69.1 °F - 69.1 °F 100% 29.99 in 4.0 mi Calm Calm - N/A   Overcast
8:31 AM 71.6 °F - 71.6 °F 100% 30.02 in 9.0 mi Calm Calm - N/A   Mostly Cloudy
8:53 AM 73.0 °F - 72.0 °F 96% 29.99 in 10.0 mi Calm Calm - N/A   Partly Cloudy
9:41 AM 75.2 °F - 71.6 °F 89% 30.03 in 10.0 mi Calm Calm - N/A   Mostly Cloudy
9:53 AM 75.9 °F - 72.0 °F 87% 29.99 in 10.0 mi Calm Calm - N/A   Mostly Cloudy
10:53 AM 81.0 °F 84.4 °F 70.0 °F 69% 30.00 in 10.0 mi SE 5.8 mph - N/A   Mostly Cloudy
11:53 AM 82.0 °F 86.3 °F 71.1 °F 69% 30.00 in 10.0 mi Calm Calm - N/A   Scattered Clouds
12:53 PM 86.0 °F 90.1 °F 69.1 °F 57% 29.99 in 10.0 mi Variable 3.5 mph - N/A   Partly Cloudy
1:53 PM 86.0 °F 88.8 °F 66.9 °F 53% 29.97 in 10.0 mi SSE 5.8 mph - N/A   Clear
2:53 PM 89.1 °F 92.1 °F 66.9 °F 48% 29.94 in 10.0 mi Variable 5.8 mph - N/A   Clear
3:53 PM 88.0 °F 90.7 °F 66.9 °F 49% 29.93 in 10.0 mi SE 8.1 mph - N/A   Partly Cloudy
4:53 PM 90.0 °F 93.6 °F 68.0 °F 48% 29.91 in 10.0 mi SE 8.1 mph - N/A   Clear
5:53 PM 89.1 °F 92.1 °F 66.9 °F 48% 29.91 in 10.0 mi SE 6.9 mph - N/A   Clear
6:53 PM 84.9 °F 88.8 °F 69.1 °F 59% 29.93 in 10.0 mi SSE 9.2 mph 17.3 mph N/A   Clear
7:53 PM 82.0 °F 84.9 °F 68.0 °F 62% 29.94 in 10.0 mi Calm Calm - N/A   Clear
8:53 PM 78.1 °F - 70.0 °F 76% 29.95 in 10.0 mi Calm Calm - N/A   Clear
9:53 PM 77.0 °F - 70.0 °F 79% 29.96 in 10.0 mi Calm Calm - N/A   Clear
10:53 PM 75.0 °F - 70.0 °F 84% 29.96 in 10.0 mi Calm Calm - N/A   Clear
11:53 PM 73.9 °F - 71.1 °F 91% 29.97 in 10.0 mi Calm Calm - N/A   Clear